[[{"header":{"parameterUnit":"m.s-1","parameterCategory":1,"la1":30.2992,"la2":30.254,"lo1":-89.0895,"lo2":-89.0443,"dy":0.0025,"dx":0.0025,"nx":19,"ny":19,"refTime":"2026-05-06T21:00:00:Z","depth":0,"parameterNumber":2,"parameterNumberName":"U-component_of_WINDS"},"data":[0,0,0,0.2694,0.2698,0.2882,0.2883,0.3104,0.3106,0,0,0,0,0,0,0,0,0,0,0,0.2628,0.2629,0.2694,0.2698,0.2882,0.2883,0.3104,0.3106,0,0,0,0,0,0,0,0,0,0,0,0.2628,0.2629,0.263,0.2699,0.2882,0.2883,0.3103,0.297,0,0,0,0,0,0,0,0,0,0,0.2794,0.2721,0.2628,0.263,0.27,0.2882,0.2884,0.2964,0.2978,0.3013,0,0.3039,0,0.3075,0.3119,0.312,0,0,0,0.2708,0.2709,0.2768,0.263,0.2701,0.2882,0.2802,0.2972,0.2989,0.3032,0.3042,0.3051,0.3079,0.3121,0.3122,0.3284,0.3284,0,0,0.2698,0.2656,0.2757,0.2778,0.2746,0.2796,0.2808,0.2982,0.2991,0.3043,0.3056,0.3083,0.3122,0.3124,0.3284,0.3284,0,0,0,0.2662,0.2648,0.2704,0.2769,0.2803,0.2801,0.2815,0.2984,0.3005,0.3059,0.3085,0.3123,0.3126,0.3283,0.3284,0.3256,0,0,0,0.2656,0.2627,0.2699,0.2675,0.2799,0.2895,0.2811,0.2993,0.3014,0.3084,0.3123,0.3128,0.3283,0.3283,0.3256,0.3251,0,0,0,0.262,0.2623,0.2646,0.2673,0.275,0.2893,0.2925,0.2999,0.303,0.312,0.3128,0.3283,0.3283,0.3256,0.3251,0.328,0,0,0,0.257,0.2621,0.2644,0.2712,0.2748,0.2874,0.2925,0.3022,0.3096,0.3124,0.3283,0.3284,0.3257,0.3251,0.328,0.3296,0.3299,0,0,0.2611,0.2624,0.2667,0.2694,0.2804,0.285,0.2958,0.3067,0.3116,0.3226,0.323,0.3256,0.3251,0.328,0.3331,0.3333,0,0,0,0.2666,0.2696,0.2734,0.2801,0.2884,0.2955,0.3052,0.3092,0.3187,0.3162,0.3277,0.3275,0.3294,0.3303,0.3305,0.3324,0.3286,0.3286,0.3286,0.2663,0.272,0.2795,0.2874,0.2939,0.3037,0.3095,0.3167,0.3208,0.3234,0.3267,0.3291,0.33,0.3302,0.3321,0.3281,0.3281,0.3281,0.3281,0.2727,0.2778,0.2829,0.292,0.2981,0.3059,0.3156,0.3182,0.3264,0.3271,0.3291,0.3292,0.3302,0.3322,0.3279,0.328,0.328,0.328,0.328,0.2731,0.2765,0.2812,0.2914,0.2987,0.3067,0.3143,0.3197,0.3249,0.3268,0.3308,0.3309,0.3316,0.3283,0.3283,0.3283,0.3284,0.3284,0.3284,0.2716,0.277,0.2825,0.2916,0.2966,0.3039,0.3138,0.319,0.3261,0.3295,0.3295,0.3333,0.3292,0.328,0.3285,0.3285,0.3285,0.3285,0.3285,0.2758,0.2757,0.2843,0.2892,0.3004,0.3072,0.314,0.324,0.3291,0.3327,0.3361,0.3322,0.3341,0.334,0.333,0.3348,0.3348,0.3348,0.3348,0.276,0.2775,0.2874,0.295,0.303,0.3099,0.3197,0.3275,0.3356,0.3391,0.3397,0.3389,0.3386,0.3407,0.3404,0.3396,0.3431,0.3431,0.3431,0.2789,0.2814,0.2884,0.2961,0.3052,0.313,0.3223,0.331,0.3402,0.3435,0.342,0.3417,0.3405,0.3398,0.343,0.3425,0.3412,0,0]},{"header":{"parameterUnit":"m.s-1","parameterCategory":1,"la1":30.2992,"la2":30.254,"lo1":-89.0895,"lo2":-89.0443,"dy":0.0025,"dx":0.0025,"nx":19,"ny":19,"refTime":"2026-05-06T21:00:00:Z","depth":0,"parameterNumber":3,"parameterNumberName":"V-component_of_WINDS"},"data":[0,0,0,-0.7188,-0.7186,-0.7096,-0.7095,-0.6963,-0.6962,0,0,0,0,0,0,0,0,0,0,0,-0.7204,-0.7203,-0.7188,-0.7186,-0.7096,-0.7095,-0.6964,-0.6962,0,0,0,0,0,0,0,0,0,0,0,-0.7205,-0.7203,-0.7202,-0.7185,-0.7096,-0.7095,-0.6964,-0.7038,0,0,0,0,0,0,0,0,0,0,-0.7128,-0.7133,-0.7203,-0.7201,-0.7185,-0.7096,-0.7095,-0.7042,-0.7033,-0.6997,0,-0.6962,0,-0.696,-0.6952,-0.6952,0,0,0,-0.7193,-0.7139,-0.7125,-0.7201,-0.7184,-0.7096,-0.7138,-0.7037,-0.7028,-0.6986,-0.696,-0.6956,-0.6958,-0.6951,-0.695,-0.6718,-0.6717,0,0,-0.7198,-0.7182,-0.7132,-0.7118,-0.7131,-0.7141,-0.7135,-0.7032,-0.7002,-0.696,-0.6953,-0.6956,-0.695,-0.6949,-0.6719,-0.6718,0,0,0,-0.7207,-0.7185,-0.7173,-0.7123,-0.7108,-0.7138,-0.7132,-0.7007,-0.7005,-0.6952,-0.6954,-0.6949,-0.6948,-0.6721,-0.6719,-0.6632,0,0,0,-0.7211,-0.719,-0.7175,-0.7164,-0.711,-0.7057,-0.7109,-0.7012,-0.7001,-0.6955,-0.6949,-0.6946,-0.6723,-0.672,-0.6638,-0.6592,0,0,0,-0.7213,-0.7191,-0.7174,-0.7164,-0.7125,-0.7059,-0.7051,-0.701,-0.7002,-0.6952,-0.6946,-0.6724,-0.672,-0.6643,-0.6601,-0.6527,0,0,0,-0.7211,-0.7097,-0.7173,-0.7046,-0.7125,-0.7006,-0.7052,-0.6963,-0.691,-0.6949,-0.6722,-0.6719,-0.6644,-0.6606,-0.6532,-0.646,-0.6429,0,0,-0.7058,-0.7078,-0.7005,-0.707,-0.6934,-0.7021,-0.6872,-0.6838,-0.6848,-0.6761,-0.6755,-0.6636,-0.6602,-0.6528,-0.6262,-0.6237,0,0,0,-0.6951,-0.6898,-0.6866,-0.6815,-0.6787,-0.676,-0.6751,-0.674,-0.6667,-0.68,-0.659,-0.657,-0.6528,-0.6494,-0.6472,-0.6437,-0.6703,-0.6704,-0.6704,-0.6708,-0.6729,-0.661,-0.662,-0.6571,-0.6565,-0.6526,-0.6509,-0.6543,-0.6493,-0.6466,-0.6303,-0.6263,-0.6247,-0.621,-0.6432,-0.6431,-0.6431,-0.6431,-0.6484,-0.6412,-0.6464,-0.6366,-0.6389,-0.6308,-0.6299,-0.6326,-0.6254,-0.6324,-0.6288,-0.6361,-0.6219,-0.6187,-0.6424,-0.6426,-0.6426,-0.6427,-0.6427,-0.6325,-0.6295,-0.6284,-0.6215,-0.616,-0.6175,-0.6104,-0.6128,-0.6149,-0.6114,-0.6088,-0.609,-0.6093,-0.6101,-0.61,-0.6099,-0.6099,-0.6098,-0.6098,-0.6164,-0.6155,-0.6092,-0.6057,-0.6029,-0.5995,-0.5991,-0.5964,-0.594,-0.5963,-0.5963,-0.6001,-0.6202,-0.6252,-0.6089,-0.6091,-0.6092,-0.6093,-0.6093,-0.5925,-0.5984,-0.5887,-0.5859,-0.5821,-0.5765,-0.5799,-0.5742,-0.5724,-0.5688,-0.5737,-0.5882,-0.5903,-0.592,-0.5961,-0.5733,-0.5733,-0.5733,-0.5733,-0.579,-0.5805,-0.5713,-0.5667,-0.5626,-0.5647,-0.5537,-0.5534,-0.554,-0.553,-0.5567,-0.5624,-0.5641,-0.5652,-0.5675,-0.5713,-0.5427,-0.5427,-0.5427,-0.5644,-0.5657,-0.5558,-0.5566,-0.5539,-0.5515,-0.5413,-0.5359,-0.5378,-0.5415,-0.5523,-0.5536,-0.5628,-0.5657,-0.5692,-0.5727,-0.5797,0,0]}]]